Bend, OR

5:21 AM PST on December 13, 2019 (GMT -0800)
Bend Municipal

Weather History for KBDN - June, 2019

Change the Weather History Date:

Sunday, June 9, 2019

  Actual Average (WUND) Record (WUND)
Temperature  
Mean Temperature 60 °F -  
Max Temperature 82 °F - - (-1)
Min Temperature 37 °F - - (-1)
Degree Days  
Heating Degree Days 6    
Growing Degree Days 10 (Base 50)    
Moisture  
Dew Point 25 °F    
Average Humidity 32    
Maximum Humidity 75    
Minimum Humidity 8    
Precipitation  
Precipitation 0.00 in - - ()
Sea Level Pressure  
Sea Level Pressure 30.32 in    
Wind  
Wind Speed 6 mph (SSE)    
Max Wind Speed 13 mph    
Max Gust Speed 18 mph    
Visibility 10 miles    
Events      
Averages and records for this station are not official NWS values.
T = Trace of Precipitation, MM = Missing Value Source: NWS Daily Summary

Daily Weather History Graph

Daily Weather History Graph

Search for Another Location

Airport or City:

Astronomy

Jun. 09, 2019 Rise Set
Actual Time 5:21 AM PDT 8:46 PM PDT
Civil Twilight 4:45 AM PDT 9:22 PM PDT
Nautical Twilight 3:58 AM PDT 10:10 PM PDT
Astronomical Twilight 2:58 AM PDT 11:09 PM PDT
Moon 12:14 PM PDT (6/9) 1:22 AM PDT (6/9)
Length of Visible Light 16h 37m
Length of Day
15h 25m
Waxing Crescent, 45% of the Moon is Illuminated
Jun 9
Waxing Crescent
Jun 9
First Quarter
Jun 17
Full
Jun 25
Last Quarter
Jul 2
New

Hourly Weather History & Observations

Time (PDT) Temp. Windchill Dew Point Humidity Pressure Visibility Wind Dir Wind Speed Gust Speed Precip Events Conditions
12:15 AM 44.6 °F 42.2 °F 30.2 °F 57% 30.38 in 10.0 mi SSW 4.6 mph - N/A   Clear
12:35 AM 44.6 °F 42.2 °F 32.0 °F 61% 30.38 in 10.0 mi WSW 4.6 mph - N/A   Clear
12:55 AM 44.6 °F 42.2 °F 32.0 °F 61% 30.38 in 10.0 mi West 4.6 mph - N/A   Clear
1:15 AM 44.6 °F - 32.0 °F 61% 30.38 in 10.0 mi Calm Calm - N/A   Clear
1:35 AM 42.8 °F 39.3 °F 32.0 °F 66% 30.38 in 10.0 mi SSW 5.8 mph - N/A   Clear
1:55 AM 42.8 °F 40.1 °F 30.2 °F 61% 30.38 in 10.0 mi SSW 4.6 mph - N/A   Clear
2:15 AM 42.8 °F 40.1 °F 30.2 °F 61% 30.38 in 10.0 mi South 4.6 mph - N/A   Clear
2:35 AM 42.8 °F 39.3 °F 28.4 °F 57% 30.38 in 10.0 mi SSW 5.8 mph - N/A   Clear
2:55 AM 42.8 °F 39.3 °F 28.4 °F 57% 30.38 in 10.0 mi South 5.8 mph - N/A   Clear
3:15 AM 42.8 °F 40.1 °F 28.4 °F 57% 30.38 in 10.0 mi SSW 4.6 mph - N/A   Clear
3:35 AM 41.0 °F 36.4 °F 28.4 °F 61% 30.38 in 10.0 mi SSW 6.9 mph - N/A   Clear
3:55 AM 41.0 °F 36.4 °F 28.4 °F 61% 30.38 in 10.0 mi SSW 6.9 mph - N/A   Clear
4:15 AM 39.2 °F 35.9 °F 30.2 °F 70% 30.37 in 10.0 mi SSW 4.6 mph - N/A   Clear
4:35 AM 37.4 °F 33.8 °F 28.4 °F 70% 30.37 in 10.0 mi SSW 4.6 mph - N/A   Clear
4:55 AM 37.4 °F 33.8 °F 28.4 °F 70% 30.37 in 10.0 mi South 4.6 mph - N/A   Clear
5:15 AM 37.4 °F 32.8 °F 28.4 °F 70% 30.37 in 10.0 mi South 5.8 mph - N/A   Clear
5:35 AM 37.4 °F 33.8 °F 30.2 °F 75% 30.38 in 10.0 mi SSE 4.6 mph - N/A   Clear
5:55 AM 37.4 °F 32.8 °F 30.2 °F 75% 30.38 in 10.0 mi SSE 5.8 mph - N/A   Clear
6:15 AM 41.0 °F 36.4 °F 30.2 °F 65% 30.39 in 10.0 mi South 6.9 mph - N/A   Clear
6:35 AM 42.8 °F 40.1 °F 30.2 °F 61% 30.39 in 10.0 mi South 4.6 mph - N/A   Clear
6:55 AM 46.4 °F 45.2 °F 32.0 °F 57% 30.39 in 10.0 mi South 3.5 mph - N/A   Clear
7:15 AM 48.2 °F - 32.0 °F 54% 30.39 in 10.0 mi SE 3.5 mph - N/A   Clear
7:35 AM 50.0 °F - 30.2 °F 47% 30.38 in 10.0 mi SE 3.5 mph - N/A   Clear
7:55 AM 53.6 °F - 30.2 °F 41% 30.38 in 10.0 mi South 4.6 mph - N/A   Clear
8:15 AM 55.4 °F - 30.2 °F 38% 30.38 in 10.0 mi SE 4.6 mph - N/A   Clear
8:35 AM 57.2 °F - 30.2 °F 36% 30.38 in 10.0 mi SSE 3.5 mph - N/A   Clear
8:55 AM 60.8 °F - 28.4 °F 29% 30.37 in 10.0 mi ESE 4.6 mph - N/A   Clear
9:15 AM 64.4 °F - 26.6 °F 24% 30.37 in 10.0 mi ESE 12.7 mph - N/A   Clear
9:35 AM 66.2 °F - 26.6 °F 23% 30.36 in 10.0 mi ESE 10.4 mph - N/A   Clear
9:55 AM 68.0 °F - 26.6 °F 21% 30.36 in 10.0 mi ESE 10.4 mph - N/A   Clear
10:15 AM 68.0 °F - 24.8 °F 20% 30.35 in 10.0 mi SE 10.4 mph - N/A   Clear
10:35 AM 69.8 °F - 23.0 °F 17% 30.35 in 10.0 mi ESE 11.5 mph - N/A   Clear
10:55 AM 69.8 °F - 23.0 °F 17% 30.34 in 10.0 mi South 9.2 mph - N/A   Clear
11:15 AM 71.6 °F - 23.0 °F 16% 30.34 in 10.0 mi South 8.1 mph 16.1 mph N/A   Clear
11:35 AM 71.6 °F - 23.0 °F 16% 30.33 in 10.0 mi East 10.4 mph 16.1 mph N/A   Clear
11:55 AM 73.4 °F - 21.2 °F 14% 30.33 in 10.0 mi SE 12.7 mph - N/A   Clear
12:15 PM 73.4 °F - 19.4 °F 13% 30.33 in 10.0 mi Variable 5.8 mph 18.4 mph N/A   Clear
12:35 PM 73.4 °F - 21.2 °F 14% 30.32 in 10.0 mi Variable 6.9 mph 15.0 mph N/A   Clear
12:55 PM 73.4 °F - 17.6 °F 12% 30.32 in 10.0 mi Variable 5.8 mph 13.8 mph N/A   Clear
1:15 PM 75.2 °F - 17.6 °F 11% 30.31 in 10.0 mi South 8.1 mph 16.1 mph N/A   Clear
1:35 PM 75.2 °F - 17.6 °F 11% 30.30 in 10.0 mi Variable 5.8 mph 15.0 mph N/A   Clear
1:55 PM 77.0 °F - 17.6 °F 11% 30.29 in 10.0 mi East 10.4 mph - N/A   Clear
2:15 PM 77.0 °F - 14.0 °F 9% 30.29 in 10.0 mi Variable 4.6 mph 15.0 mph N/A   Clear
2:35 PM 78.8 °F - 12.2 °F 8% 30.28 in - ESE 11.5 mph - N/A   Clear
2:55 PM 78.8 °F - 12.2 °F 8% 30.28 in 10.0 mi SSE 5.8 mph 11.5 mph N/A   Clear
3:15 PM 80.6 °F - 12.2 °F 8% 30.27 in 10.0 mi Variable 6.9 mph 13.8 mph N/A   Clear
3:35 PM 80.6 °F - 12.2 °F 8% 30.27 in 10.0 mi Variable 4.6 mph 11.5 mph N/A   Clear
3:55 PM 82.4 °F - 14.0 °F 8% 30.26 in 10.0 mi Calm Calm - N/A   Clear
4:15 PM 82.4 °F - 14.0 °F 8% 30.25 in 10.0 mi SSE 8.1 mph 13.8 mph N/A   Clear
4:35 PM 80.6 °F - 14.0 °F 8% 30.25 in 10.0 mi Variable 6.9 mph 12.7 mph N/A   Clear
4:55 PM 82.4 °F - 14.0 °F 8% 30.24 in 10.0 mi Variable 4.6 mph 12.7 mph N/A   Clear
5:15 PM 82.4 °F - 14.0 °F 8% 30.23 in 10.0 mi Variable 5.8 mph - N/A   Clear
5:35 PM 82.4 °F - 15.8 °F 8% 30.23 in 10.0 mi North - - N/A   Clear
5:55 PM 80.6 °F - 17.6 °F 10% 30.22 in 10.0 mi NE 6.9 mph 13.8 mph N/A   Clear
6:15 PM 82.4 °F - 15.8 °F 8% 30.22 in 10.0 mi Variable 6.9 mph - N/A   Clear
6:35 PM 80.6 °F - 15.8 °F 9% 30.22 in 10.0 mi ESE 6.9 mph 13.8 mph N/A   Clear
6:55 PM 80.6 °F - 17.6 °F 10% 30.22 in 10.0 mi NE 9.2 mph - N/A   Clear
7:15 PM 78.8 °F - 21.2 °F 12% 30.22 in 10.0 mi ENE 9.2 mph - N/A   Clear
7:35 PM 78.8 °F - 23.0 °F 13% 30.22 in 10.0 mi ENE 9.2 mph 15.0 mph N/A   Clear
7:55 PM 77.0 °F - 23.0 °F 13% 30.22 in 10.0 mi ENE 8.1 mph - N/A   Clear
8:15 PM 75.2 °F - 23.0 °F 14% 30.22 in 10.0 mi ENE 6.9 mph - N/A   Clear
8:35 PM 73.4 °F - 26.6 °F 18% 30.22 in 10.0 mi NNE 4.6 mph - N/A   Clear
8:55 PM 69.8 °F - 28.4 °F 21% 30.23 in 10.0 mi North 5.8 mph - N/A   Clear
9:15 PM 68.0 °F - 28.4 °F 23% 30.24 in 10.0 mi Calm Calm - N/A   Clear
9:35 PM 66.2 °F - 28.4 °F 24% 30.24 in 10.0 mi Calm Calm - N/A   Clear
9:55 PM 64.4 °F - 30.2 °F 28% 30.25 in 10.0 mi WNW 3.5 mph - N/A   Clear
10:15 PM 62.6 °F - 32.0 °F 32% 30.26 in 10.0 mi West 3.5 mph - N/A   Clear
10:35 PM 60.8 °F - 32.0 °F 34% 30.27 in 10.0 mi West 5.8 mph - N/A   Clear
10:55 PM 60.8 °F - 30.2 °F 31% 30.28 in 10.0 mi WNW 6.9 mph - N/A   Clear
11:15 PM 60.8 °F - 30.2 °F 31% 30.28 in 10.0 mi West 6.9 mph - N/A   Clear
11:35 PM 60.8 °F - 30.2 °F 31% 30.29 in 10.0 mi West 5.8 mph - N/A   Clear
11:55 PM 60.8 °F - 30.2 °F 31% 30.29 in - WNW 8.1 mph - N/A   Clear